User: anonymous   Login
Location: Unspecified
(32.5219°N, 0.0000°E)
Time: 01:07:10
(UTC+00:00)
Language:

Cosmos 836 Rocket - Orbit

View from above orbital plane
View from above orbital plane
View from above satellite
View from above satellite

Ground track
Ground track

The orbit is defined by the following mean orbital elements,

1 08924U          26088.14415617 +.00000000 +00000-0 +95158-4 0 00001
2 08924  74.0582 330.3820 0013775 156.7508 320.3497 14.38599956    02
Epoch (UTC): 29 March 2026 03:27:35
Eccentricity: 0.0013775
inclination: 74.0582°
perigee height: 753 km
apogee height: 773 km
right ascension of ascending node: 330.3820°
argument of perigee: 156.7508°
revolutions per day: 14.38599956
mean anomaly at epoch: 320.3497°

The dashed part of the orbit path shows where the satellite is in the earth's shadow,  

DLR